Location: *
(37.5724°S, 58.0067°E)
Time: 04:09:08
(UTC+00:00)

Cosmos 2026 Rocket - Pass Details

Date: 17 January 2021
Orbit: 940 x 1000 km, 82.9° (Epoch: 03 March)

Event Time Altitude Azimuth Distance (km) Brightness Sun altitude
Rises 16:12:28 0° 204° (SSW) 3,663 8.1 -8.1°
Reaches altitude 10° 16:15:40 10° 219° (SW) 2,700 7.8 -8.6°
Maximum altitude 16:19:55 20° 263° (W) 2,057 6.6 -9.3°
Drops below altitude 10° 16:24:08 10° 308° (NW) 2,662 6.5 -10.0°
Sets 16:27:16 0° 324° (NW) 3,595 7.0 -10.5°
